Home > Weather > Stange > Past weeks

Flag for Norway Weather for the Past 2 Weeks in Stange, Norway

Now
30 °F

Light freezing rain. Ice fog.


Feels Like: 30 °F
Forecast: 26 / 38 °F
Wind: 1 mph from North

Location: Oslo Gardermoen Airport

Current Time: Feb 6, 2016 at 4:24:53 AM

Latest Report: Feb 6, 2016 at 3:20 AM


Visibility: 1 mi

Pressure: 29.59 "Hg

Humidity: 100%

Dew point: 30 °F

Location of StangeLocation

Historic Weather in Stange — Graph

°F

Stange Temperature Yesterday

Maximum temperature yesterday: 30 °F (at 3:20 PM)
Minimum temperature yesterday: 21 °F (at 9:50 AM)
Average temperature yesterday: 27 °F

High & Low Weather Summary for the Past Weeks

 TemperatureHumidityPressure
High41 °F (Jan 29, 4:50 PM)100% (Jan 25, 10:20 AM)30.30 "Hg (Jan 25, 10:20 AM)
Low-8 °F (Jan 22, 3:50 AM)38% (Feb 4, 1:20 PM)28.77 "Hg (Feb 2, 4:50 PM)
Average29 °F80%29.48 "Hg
* Reported Jan 22 2:20 AM — Feb 6 2:50 AM, Stange, Weather by CustomWeather, © 2016

Note: Actual official high and low records may vary slightly from our data, if they occured in-between our weather recording intervals... More about our weather records

Advertising

Stange Weather History for the Previous 24 Hours

 ConditionsComfort  
Time TempWeatherWind HumidityBarometerVisibility
2:50 AM
Sat, Feb 6
30 °FIce fog.No wind100%29.59 "Hg1 mi
2:20 AM30 °FIce fog.2 mph93%29.62 "Hg2 mi
1:20 AM30 °FLight freezing rain. Ice fog.2 mph93%29.65 "Hg2 mi
12:50 AM30 °FLight freezing rain. Ice fog.2 mph93%29.65 "Hg2 mi
12:20 AM30 °FIcy mix. Passing clouds.2 mph93%29.68 "Hg2 mi
11:50 PM
Fri, Feb 5
30 °FLight snow. Passing clouds.3 mph93%29.68 "Hg6 mi
11:20 PM30 °FLight snow. Partly cloudy.5 mph93%29.71 "Hg2 mi
10:50 PM28 °FLight snow. Passing clouds.5 mph100%29.71 "Hg2 mi
10:20 PM28 °FLight snow. Passing clouds.6 mph100%29.71 "Hg3 mi
9:50 PM28 °FLight snow. Passing clouds.6 mph93%29.74 "Hg2 mi
9:20 PM28 °FLight snow. Partly cloudy.6 mph93%29.74 "Hg3 mi
8:50 PM28 °FLight snow. Partly cloudy.7 mph93%29.74 "Hg2 mi
8:20 PM28 °FLight snow. Partly cloudy.7 mph93%29.77 "Hg2 mi
7:50 PM28 °FLight snow. Partly cloudy.7 mph93%29.77 "Hg2 mi
7:20 PM28 °FLight snow. Passing clouds.7 mph93%29.77 "Hg2 mi
6:50 PM28 °FLight snow. Ice fog.8 mph86%29.77 "Hg3 mi
6:20 PM28 °FLight snow. Passing clouds.7 mph86%29.77 "Hg2 mi
5:50 PM28 °FLight snow. Passing clouds.8 mph80%29.80 "Hg2 mi
5:20 PM30 °FLight snow. Partly cloudy.7 mph69%29.80 "HgN/A
4:50 PM30 °FLight snow. Passing clouds.6 mph64%29.80 "HgN/A
4:20 PM30 °FBroken clouds.6 mph64%29.80 "HgN/A
3:50 PM30 °FSunny.6 mph64%29.80 "Hg10 mi
3:20 PM30 °FSunny.6 mph64%29.83 "Hg10 mi
2:50 PM28 °FSunny.5 mph69%29.83 "Hg10 mi
2:20 PM28 °FSunny.3 mph69%29.83 "Hg10 mi
1:50 PM28 °FSunny.2 mph69%29.83 "Hg10 mi
1:20 PM28 °FSunny.2 mph69%29.86 "Hg10 mi
12:50 PM27 °FSunny.No wind69%29.86 "Hg10 mi
12:20 PM27 °FSunny.1 mph69%29.86 "Hg10 mi
11:50 AM25 °FSunny.5 mph74%29.86 "Hg10 mi
11:20 AM25 °FSunny.No wind69%29.86 "Hg10 mi
10:50 AM25 °FSunny.2 mph69%29.86 "Hg10 mi
10:20 AM23 °FSunny.No wind74%29.86 "Hg10 mi
9:50 AM21 °FSunny.1 mph74%29.86 "Hg10 mi
9:20 AM23 °FSunny.3 mph68%29.86 "Hg10 mi
8:50 AM25 °FSunny.2 mph63%29.86 "Hg10 mi
8:20 AM23 °FClear.2 mph68%29.86 "Hg10 mi
7:50 AM23 °FClear.No wind68%29.86 "Hg10 mi
7:20 AM25 °FClear.1 mph63%29.83 "Hg10 mi
6:50 AM23 °FClear.No wind68%29.83 "Hg10 mi
6:20 AM23 °FClear.2 mph68%29.83 "Hg10 mi
5:50 AM27 °FPassing clouds.5 mph59%29.86 "HgN/A
5:20 AM27 °FClear.3 mph59%29.86 "Hg10 mi
4:50 AM25 °FPassing clouds.3 mph63%29.86 "HgN/A
4:20 AM23 °FPassing clouds.3 mph63%29.86 "HgN/A
Weather by CustomWeather, © 2016

See weather overviewHow to use our weather pages